Weather History for KCAR - August, 2014

Change the Weather History Date:

Sunday, August 10, 2014

  Actual Average Record
Temperature  
Mean Temperature 68 °F 65 °F  
Max Temperature 83 °F 75 °F 93 °F (1995)
Min Temperature 52 °F 54 °F 41 °F (1979)
Degree Days  
Heating Degree Days 0 2  
Month to date heating degree days 2 20  
Since 1 June heating degree days 115 243  
Since 1 July heating degree days 26 78  
Cooling Degree Days 3 2  
Month to date cooling degree days 30 21  
Year to date cooling degree days 199 137  
Since 1 June cooling degree days 196 132  
Growing Degree Days 17 (Base 50)    
Moisture  
Dew Point 53 °F    
Average Humidity 65    
Maximum Humidity 96    
Minimum Humidity 33    
Precipitation  
Precipitation 0.00 in 0.12 in 2.00 in (1976)
Month to date precipitation 0.39 1.28  
Year to date precipitation 27.26 22.26  
Snow  
Snow 0.00 in 0.00 in 0.00 in (2002)
Month to date snowfall 0.0 0.0  
Since 1 June snowfall 0.0 0.0  
Since 1 July snowfall 0.0 0.0  
Snow Depth 0.00 in    
Sea Level Pressure  
Sea Level Pressure 30.10 in    
Wind  
Wind Speed 2 mph (West)    
Max Wind Speed 12 mph    
Max Gust Speed 14 mph    
Visibility 10 miles    
Events      
T = Trace of Precipitation, MM = Missing Value Source: NWS Daily Summary

Daily Weather History Graph

Daily Weather History Graph

Search for Another Location

Airport or City:

Trip Planner

Search our weather history database for the weather conditions in past years. The results will help you decide how hot, cold, wet, or windy it might be!

Date:

Astronomy

Aug. 10, 2014 Rise Set
Actual Time 5:23 AM EDT 7:50 PM EDT
Civil Twilight 4:49 AM EDT 8:24 PM EDT
Nautical Twilight 4:06 AM EDT 9:07 PM EDT
Astronomical Twilight 3:17 AM EDT 9:55 PM EDT
Moon 7:29 PM EDT (8/10) 5:14 AM EDT (8/10)
Length of Visible Light 15h 35m
Length of Day
14h 27m
Full, 100% of the Moon is Illuminated
Aug 10
Full
Aug 10
Full
Aug 17
Last Quarter
Aug 25
New
Sep 2
First Quarter

Hourly Weather History & Observations

Time (EDT) Temp. Dew Point Humidity Pressure Visibility Wind Dir Wind Speed Gust Speed Precip Events Conditions
12:54 AM 57.0 °F 53.1 °F 87% 30.08 in 10.0 mi North 3.5 mph - N/A   Overcast
1:54 AM 54.0 °F 51.1 °F 90% 30.08 in 10.0 mi West 3.5 mph - N/A   Partly Cloudy
2:54 AM 55.0 °F 52.0 °F 89% 30.09 in 10.0 mi WNW 3.5 mph - N/A   Clear
3:54 AM 53.1 °F 50.0 °F 89% 30.09 in 10.0 mi Calm Calm - N/A   Clear
5:54 AM 52.0 °F 50.0 °F 93% 30.11 in 10.0 mi Calm Calm - N/A   Clear
6:54 AM 57.0 °F 53.1 °F 87% 30.12 in 10.0 mi Calm Calm - N/A   Clear
7:54 AM 63.0 °F 54.0 °F 72% 30.12 in 10.0 mi Calm Calm - N/A   Clear
8:54 AM 66.0 °F 55.0 °F 68% 30.13 in 10.0 mi Calm Calm - N/A   Clear
9:54 AM 70.0 °F 55.0 °F 59% 30.13 in 10.0 mi Calm Calm - N/A   Clear
10:54 AM 75.0 °F 57.0 °F 53% 30.13 in 10.0 mi Calm Calm - N/A   Clear
11:54 AM 75.0 °F 53.1 °F 46% 30.12 in 10.0 mi Variable 3.5 mph - N/A   Clear
12:54 PM 79.0 °F 53.1 °F 40% 30.11 in 10.0 mi Variable 5.8 mph - N/A   Clear
1:54 PM 80.1 °F 51.1 °F 36% 30.10 in 10.0 mi NNE 4.6 mph - N/A   Partly Cloudy
2:54 PM 82.0 °F 50.0 °F 33% 30.08 in 10.0 mi NW 6.9 mph - N/A   Partly Cloudy
3:54 PM 80.1 °F 51.1 °F 36% 30.08 in 10.0 mi SE 4.6 mph - N/A   Partly Cloudy
4:54 PM 80.1 °F 51.1 °F 36% 30.07 in 10.0 mi Calm Calm - N/A   Clear
5:54 PM 81.0 °F 48.9 °F 33% 30.07 in 10.0 mi Calm Calm - N/A   Clear
6:54 PM 77.0 °F 55.0 °F 47% 30.08 in 10.0 mi SW 3.5 mph - N/A   Clear
7:54 PM 71.1 °F 55.9 °F 59% 30.08 in 10.0 mi SW 3.5 mph - N/A   Clear
8:54 PM 68.0 °F 57.0 °F 68% 30.09 in 10.0 mi West 3.5 mph - N/A   Mostly Cloudy
9:54 PM 64.9 °F 57.9 °F 78% 30.09 in 10.0 mi Calm Calm - N/A   Mostly Cloudy
10:54 PM 64.0 °F 57.0 °F 78% 30.09 in 10.0 mi Calm Calm - N/A   Clear
11:54 PM 63.0 °F 57.0 °F 81% 30.11 in 10.0 mi SE 6.9 mph - N/A   Scattered Clouds